GFSNW_sfc_dewp_084.txt.gz
Dewpoint
55 55 55 54 53 52 49 42 37 41 31 28 38 34 30 29 22 25 24 23 27 30 31 31 32 30 26 26 29 26 33 21 20 30 30 30 31 30 32 30 28 39 41 46
55 55 55 54 52 52 48 39 40 37 32 27 32 29 20 19 16 21 24 25 23 30 31 31 32 31 25 25 26 23 26 22 23 25 26 29 22 21 26 28 32 36 32 43
55 55 54 54 53 52 48 41 36 27 26 24 22 22 20 17 16 19 22 27 29 31 31 32 28 29 23 25 24 48 36 21 23 24 29 29 22 21 21 24 22 37 41 45
54 55 54 54 53 52 49 43 34 23 18 19 19 22 24 23 23 26 27 27 32 31 27 33 35 35 33 25 37 26 24 24 25 25 25 25 24 22 23 23 26 34 44 44
54 55 55 55 54 52 49 36 38 40 32 26 20 27 22 22 23 26 27 32 36 37 33 37 34 35 32 35 34 30 26 30 27 26 31 29 24 24 31 37 43 45 46 44
54 54 54 55 54 50 47 49 46 42 39 25 20 23 24 29 27 29 31 35 32 29 32 37 38 38 36 34 35 29 32 29 28 27 32 26 24 26 26 40 44 46 44 45
54 54 54 55 54 52 48 49 47 43 38 23 23 25 30 30 32 29 29 30 32 31 32 28 28 30 25 23 23 26 25 31 30 27 29 23 27 29 27 38 43 45 44 44
53 54 54 55 55 54 49 46 46 46 43 35 25 24 25 30 30 29 30 31 31 32 32 30 25 27 23 32 24 22 25 28 25 26 27 28 29 27 27 27 39 45 44 43
53 53 54 55 55 54 50 46 53 49 45 30 29 29 31 32 31 29 30 30 34 33 33 33 30 29 35 33 34 27 26 29 28 30 28 23 29 30 30 32 34 44 43 41
51 52 53 54 54 54 52 46 51 49 46 44 36 35 33 33 34 33 31 29 30 32 34 36 31 32 38 31 34 34 32 27 26 30 30 34 36 34 32 29 31 41 41 39
52 52 53 53 54 54 52 47 51 47 45 45 40 34 36 38 39 34 33 32 36 33 31 36 34 32 35 31 35 32 32 29 28 29 26 26 39 37 31 36 38 41 41 40
52 52 52 53 54 54 53 50 52 53 45 44 44 42 37 38 38 37 34 36 37 35 36 38 38 34 35 34 29 34 29 34 34 34 34 40 41 39 41 38 38 39 43 42
52 52 52 52 53 53 52 48 50 50 47 45 41 39 33 36 34 38 37 40 38 37 38 37 37 33 36 33 33 34 36 35 34 34 39 37 38 39 39 38 38 38 38 37
51 52 52 52 53 53 52 48 50 51 48 45 40 37 34 35 34 38 41 39 39 40 36 30 34 34 37 36 35 35 36 36 32 33 35 36 40 39 37 36 38 38 35 35
51 52 52 52 52 52 50 48 49 51 48 45 45 45 38 36 36 38 40 38 40 40 37 36 34 39 38 38 36 35 37 35 36 36 40 38 38 41 41 36 37 37 35 35
51 52 52 52 52 51 49 49 52 49 52 45 42 44 38 37 37 37 39 41 41 40 39 38 41 43 37 35 33 38 39 41 42 39 42 43 42 45 45 39 36 38 36 39
51 51 52 52 51 48 48 49 51 50 51 47 44 43 41 39 40 41 40 42 42 41 40 39 40 41 40 37 33 38 39 41 42 42 41 40 42 41 45 45 41 43 38 39
51 51 51 51 51 50 45 48 50 49 49 49 44 42 40 40 39 39 44 42 43 42 40 43 43 43 41 36 40 41 41 41 42 41 41 40 42 43 43 44 45 41 40 41
50 51 51 50 48 48 51 54 53 52 50 47 46 41 41 43 41 43 44 43 40 46 41 42 43 39 36 40 41 42 43 42 40 41 43 41 43 43 44 44 43 39 39 41
50 49 48 47 52 56 55 51 49 49 49 48 45 47 44 43 44 44 45 46 43 40 43 46 40 40 43 43 44 43 43 42 40 39 40 41 42 43 45 45 47 45 46 43
48 47 48 55 55 50 49 43 44 45 42 46 45 43 41 49 43 45 48 45 45 35 40 41 35 39 43 45 46 46 46 43 40 41 43 44 43 44 45 46 48 48 48 49
47 48 50 52 50 47 41 40 44 43 41 45 44 44 43 49 50 47 47 44 46 40 46 42 36 41 44 44 45 46 41 41 41 43 44 45 46 46 46 46 46 49 49 50
50 49 47 47 43 37 38 36 39 42 45 48 49 48 49 50 49 44 44 42 42 45 41 37 39 43 45 43 42 43 42 42 44 45 45 45 46 48 48 48 48 48 47 49
47 45 36 39 38 40 41 40 44 47 49 49 50 48 48 48 45 44 40 44 43 39 36 36 41 42 43 44 44 46 43 44 43 44 44 44 44 46 48 49 48 49 49 49
46 44 32 39 39 41 44 47 47 50 51 49 46 45 48 46 45 44 43 40 37 36 35 39 43 43 46 44 45 40 39 40 39 40 40 41 40 40 40 41 41 41 42 44
46 42 39 39 37 37 36 39 48 52 52 51 47 43 45 44 44 40 39 36 34 35 41 44 45 48 46 41 40 39 39 39 38 38 38 40 41 41 41 42 42 42 42 42
42 40 39 38 37 36 36 38 43 52 50 46 46 41 40 43 39 38 40 37 38 43 46 47 45 44 42 40 37 39 39 38 38 39 40 41 41 41 40 39 40 41 41 42

GFSNW_sfc_dewp_087.txt.gz
Dewpoint
54 55 55 54 53 52 48 41 32 40 35 31 37 31 31 28 19 25 26 24 26 29 32 33 30 24 25 26 29 24 29 20 21 28 26 29 23 24 32 28 31 37 39 42
54 55 55 54 53 52 47 37 37 41 31 24 30 30 20 16 18 19 24 26 25 32 30 30 30 29 24 24 24 22 25 22 23 25 28 29 22 21 29 29 35 37 34 39
54 54 54 53 53 52 48 39 24 26 24 25 23 21 21 16 26 27 25 28 30 30 30 35 32 33 30 26 27 46 33 21 23 27 28 28 24 22 23 23 22 33 35 46
54 54 54 54 53 52 46 41 31 28 19 20 22 24 24 25 24 27 30 34 35 29 31 33 33 33 32 31 39 25 24 25 26 28 27 27 24 24 30 23 26 34 40 44
54 54 55 54 53 51 46 38 39 41 34 26 20 25 22 24 23 26 29 33 34 35 32 35 31 34 32 34 32 30 29 28 27 28 33 28 26 27 27 41 45 45 44 42
54 54 55 55 53 49 45 47 46 41 39 22 22 22 23 30 28 30 33 35 31 28 30 37 36 37 35 31 33 26 30 27 27 28 30 34 32 28 28 39 45 45 42 43
54 54 55 55 54 52 47 47 46 41 37 23 26 29 31 29 31 28 29 33 31 31 32 30 29 27 24 29 23 25 24 31 28 26 27 27 32 31 35 43 44 45 45 44
54 53 55 55 54 53 48 44 46 45 40 36 26 25 27 29 30 28 30 31 31 32 33 30 25 30 22 34 29 24 26 27 28 24 26 27 28 28 26 34 41 45 44 44
54 52 53 54 54 53 48 46 51 48 38 34 32 28 32 29 31 29 29 29 33 34 34 34 28 27 33 31 32 35 28 27 27 30 26 19 26 30 31 32 34 45 44 43
54 51 53 53 54 53 50 46 50 48 45 45 39 33 31 33 33 31 31 28 31 32 35 34 30 31 37 30 32 32 30 27 24 30 27 31 35 36 37 29 30 44 44 43
54 51 53 53 53 54 51 46 50 45 43 42 44 39 36 38 36 31 32 31 35 32 33 35 31 31 33 29 33 31 30 27 26 28 25 24 37 36 28 32 39 41 43 43
54 52 53 53 53 54 52 47 48 52 43 40 45 41 39 38 38 36 35 34 36 34 35 37 36 32 34 30 28 33 29 34 33 33 32 36 40 40 40 38 39 40 41 41
53 52 52 52 53 53 51 46 49 48 46 43 43 39 39 36 36 39 38 39 36 36 37 38 37 31 35 32 32 32 35 36 33 34 38 37 39 39 38 38 39 42 43 43
51 51 52 52 53 52 51 44 47 50 48 43 41 44 36 35 37 40 40 38 40 39 34 30 35 34 36 34 34 34 36 32 32 32 34 36 39 39 38 39 40 39 41 41
50 51 52 52 52 52 49 46 47 50 46 44 44 44 42 37 40 39 38 39 40 38 36 35 34 38 37 37 36 34 37 34 35 35 34 35 34 39 41 39 38 39 37 37
50 51 52 52 52 51 50 48 51 48 51 43 41 44 40 37 39 40 40 40 41 40 37 37 40 41 36 34 31 36 38 39 39 37 40 41 41 43 43 39 37 39 36 38
51 51 51 51 51 47 47 48 50 49 50 45 44 43 41 39 39 41 40 43 41 40 39 39 39 40 39 36 31 35 38 39 42 43 42 40 43 41 44 45 44 42 38 38
51 50 50 50 51 50 44 47 50 49 48 48 43 41 39 41 38 38 43 41 41 41 39 42 42 41 39 34 38 40 40 41 42 41 40 38 41 43 43 43 44 43 39 39
50 50 51 49 47 47 50 54 52 53 49 46 45 40 38 43 41 42 43 43 39 43 39 41 42 37 36 39 39 41 42 41 40 41 41 42 41 41 43 43 43 43 42 41
50 49 48 48 51 55 54 50 48 47 48 47 43 47 44 41 43 43 44 46 43 38 41 44 39 39 42 43 42 42 43 44 41 38 38 39 40 43 43 43 45 44 45 44
48 48 50 53 54 50 48 43 43 44 42 44 45 45 42 47 42 45 48 44 42 38 39 40 35 38 42 44 45 45 44 44 42 39 39 42 43 43 44 44 46 46 47 48
47 47 49 50 49 46 42 40 41 42 40 44 43 44 42 48 48 45 44 41 41 38 44 43 36 39 43 43 45 46 46 44 41 42 43 44 44 44 45 46 45 47 47 48
49 49 46 47 43 37 37 34 37 40 45 46 47 46 46 47 46 43 43 40 39 43 41 38 38 40 44 43 42 42 43 43 44 44 45 45 45 46 48 48 48 46 47 47
46 44 34 38 37 39 39 40 41 44 48 48 47 48 47 46 44 42 38 41 41 40 37 36 39 42 42 42 44 44 43 43 44 44 43 43 43 44 46 49 48 48 47 46
45 44 34 39 40 42 44 44 45 48 49 47 44 44 45 44 41 41 40 40 38 38 36 37 41 41 42 44 43 40 39 39 40 40 40 39 39 40 42 42 42 42 42 43
45 44 40 39 38 36 36 39 43 49 49 47 44 41 41 41 40 38 37 38 34 35 38 42 42 42 43 42 39 39 38 37 37 37 39 41 41 40 39 39 40 40 41 41
43 42 41 39 38 38 37 37 46 50 47 43 44 40 39 41 37 36 40 37 36 38 42 44 43 44 41 39 38 39 38 37 38 39 40 40 40 39 39 37 39 40 41 41

GFSNW_sfc_dewp_093.txt.gz
Dewpoint
56 55 54 54 53 51 48 38 34 41 37 34 36 32 31 29 18 24 27 26 30 32 33 31 25 23 24 24 28 25 27 25 27 25 26 26 25 31 31 21 33 39 35 37
57 56 54 53 52 52 49 39 37 41 36 27 28 31 19 26 24 27 28 28 32 35 34 34 34 30 26 29 24 28 29 27 25 24 25 28 30 28 31 34 38 39 26 32
56 55 54 53 53 52 48 40 28 30 28 27 27 23 21 24 27 31 32 35 31 33 35 39 35 33 32 33 36 41 38 27 29 23 27 28 32 35 27 27 24 35 32 41
57 56 54 54 53 52 47 38 32 31 25 26 25 26 25 24 25 28 35 34 34 30 32 32 33 33 33 35 39 32 32 30 30 30 30 30 32 38 39 27 29 29 34 37
57 56 54 54 53 51 48 41 40 40 38 28 25 29 26 23 24 30 32 32 31 35 36 34 31 31 32 30 34 35 33 34 32 30 31 33 28 34 42 42 42 42 43 41
57 56 54 54 53 50 47 48 47 41 36 25 24 25 27 28 30 29 33 33 31 30 30 32 36 32 28 30 30 32 34 31 35 30 32 33 30 31 34 39 44 43 37 45
57 56 54 55 54 52 48 48 48 39 28 29 29 28 29 28 29 27 27 33 32 32 32 32 28 30 32 31 31 27 35 35 33 29 34 26 32 34 37 37 42 45 46 47
56 56 54 55 54 53 50 47 48 44 32 31 28 30 30 30 31 29 28 30 33 35 35 28 28 26 27 33 34 29 34 35 31 31 29 28 29 30 30 32 34 45 46 47
55 57 54 54 54 53 49 47 52 49 37 29 28 29 31 30 31 31 29 32 35 38 37 36 29 32 32 29 29 35 31 37 32 32 24 23 29 33 36 35 31 46 47 47
54 56 54 53 54 53 52 48 52 50 44 43 36 33 32 34 32 33 34 32 32 36 37 37 39 38 39 35 29 30 30 32 29 31 28 27 34 36 38 32 34 44 47 48
54 56 53 53 53 54 52 50 52 49 43 43 44 37 38 37 35 33 35 34 34 34 38 38 41 42 40 38 37 36 30 34 35 32 30 30 38 36 32 38 42 43 48 48
54 56 52 53 53 53 52 50 50 52 47 42 46 44 43 41 39 37 37 37 38 36 39 41 38 39 37 32 35 37 38 37 43 35 36 39 42 42 42 41 42 44 46 48
54 56 51 52 53 53 52 46 50 50 47 40 42 40 42 39 38 38 38 40 39 40 41 39 37 35 37 34 34 35 37 38 41 40 41 42 42 41 40 42 42 44 45 47
54 55 51 52 52 52 51 45 48 51 48 39 39 47 41 41 40 41 40 41 40 39 38 37 38 37 38 36 38 39 37 39 39 38 38 41 42 43 42 41 43 45 46 47
54 52 51 51 52 51 50 48 48 50 48 39 43 44 42 38 42 42 42 41 42 41 38 37 35 38 39 39 38 38 38 39 41 41 41 43 41 44 44 42 42 45 45 46
54 51 51 51 51 50 51 46 51 51 52 44 39 45 42 41 42 43 43 43 43 41 40 39 40 42 40 38 42 41 40 41 42 40 42 43 44 44 44 42 42 43 45 46
51 51 51 50 50 48 47 46 50 50 52 44 38 43 43 41 42 42 43 45 43 42 41 41 42 43 41 40 44 38 40 42 43 43 44 43 44 43 45 45 45 44 42 43
50 51 50 50 50 50 46 49 50 50 49 49 44 43 39 41 40 41 45 43 43 43 42 43 45 43 42 44 42 42 43 42 43 44 44 43 45 45 46 46 45 44 44 44
51 50 51 50 47 48 51 52 52 53 48 42 46 44 39 43 43 44 44 44 44 46 42 46 47 46 42 43 44 44 45 43 42 45 45 42 43 44 43 43 44 43 44 44
50 49 47 48 52 55 55 52 49 48 47 48 45 46 46 42 44 43 46 48 45 45 44 47 46 46 46 47 46 46 45 45 44 43 44 44 42 42 44 44 46 45 45 46
48 47 51 54 53 50 48 45 44 44 42 45 44 46 44 48 45 46 50 47 47 44 45 45 45 41 45 45 47 48 48 47 45 44 44 44 44 44 44 45 46 47 47 48
48 48 50 52 49 46 44 43 43 43 39 44 44 44 46 50 51 50 49 45 46 40 45 45 40 44 46 46 46 48 48 46 45 43 43 45 45 46 47 47 47 48 49 50
52 51 49 48 45 40 40 37 39 41 43 46 47 47 50 50 51 48 47 43 43 45 43 42 42 45 45 47 46 47 48 47 46 45 46 47 48 48 49 49 49 49 49 49
49 46 39 42 40 40 41 38 42 44 50 50 51 50 50 50 48 47 42 45 45 41 39 40 42 47 47 47 47 46 46 47 47 47 47 47 46 46 45 45 44 44 44 44
44 46 39 40 41 42 43 44 46 50 52 51 50 49 49 47 45 44 43 41 39 39 38 41 46 48 48 48 47 46 46 45 44 43 43 44 44 43 43 43 42 42 42 43
42 44 43 43 40 39 39 42 43 52 52 50 49 47 45 44 45 42 40 39 37 37 41 47 48 49 49 47 46 45 44 43 41 42 42 43 42 42 41 41 41 41 43 43
40 39 43 42 41 39 39 39 40 49 47 47 47 41 41 43 42 40 42 40 40 41 43 47 50 49 48 46 44 43 42 42 42 43 43 43 42 41 41 41 42 41 43 43

GFSNW_sfc_dewp_096.txt.gz
Dewpoint
57 57 54 53 53 51 50 39 32 41 40 33 31 26 22 29 16 22 25 26 28 30 31 25 25 25 27 25 27 27 29 24 26 20 25 26 21 21 23 19 30 27 28 35
57 56 54 53 52 52 50 38 37 39 35 26 25 28 19 22 18 18 23 25 29 34 33 32 28 27 30 32 26 29 30 26 25 25 24 27 23 23 24 22 21 31 26 29
57 56 54 53 53 52 50 40 31 32 34 31 23 24 22 21 25 23 26 30 30 30 32 34 30 28 28 33 32 43 35 26 29 21 23 24 28 28 25 23 20 23 26 35
57 56 55 54 53 52 49 39 30 32 22 23 25 25 23 21 20 24 25 32 29 29 30 30 29 29 30 32 41 34 33 31 29 28 27 26 27 26 24 25 23 24 26 29
56 57 55 54 53 52 49 41 36 36 32 30 25 28 26 20 20 26 22 28 28 30 33 34 31 30 32 31 33 35 33 33 33 31 30 27 31 34 30 27 28 26 31 32
56 57 55 54 53 51 45 48 47 43 34 26 23 25 25 22 24 28 32 32 30 28 31 32 32 30 30 31 33 34 35 34 33 29 30 30 27 30 31 35 36 35 28 44
55 56 56 55 54 52 49 48 48 40 25 25 25 23 22 23 27 25 20 33 32 33 33 32 27 27 30 30 30 31 35 39 34 28 32 28 33 33 33 35 37 39 42 45
54 55 56 54 54 53 50 50 49 43 28 27 27 25 24 30 32 27 22 30 35 36 32 30 30 27 29 29 30 28 35 35 31 29 29 30 31 33 32 31 34 40 44 47
54 55 57 54 54 53 50 49 53 49 35 26 28 28 30 29 31 29 27 34 36 36 32 30 31 32 30 28 28 31 30 36 29 27 27 26 33 32 34 34 31 40 44 48
54 54 56 53 54 53 51 50 56 50 40 34 34 28 30 32 32 31 32 33 33 36 29 30 35 37 37 33 28 31 29 31 30 26 26 27 34 34 36 32 37 43 47 48
53 54 56 53 53 53 51 51 56 51 43 42 40 35 37 36 33 30 37 33 33 31 32 33 40 39 40 37 36 34 30 31 32 31 29 29 37 35 34 42 42 42 47 49
52 54 56 52 53 53 52 50 53 53 48 43 46 42 42 40 39 36 37 37 34 34 32 36 38 36 36 34 36 39 38 34 41 31 35 43 43 43 43 41 43 43 46 47
52 54 56 52 52 52 51 47 52 50 44 40 39 38 41 40 38 36 35 38 39 40 44 36 35 33 34 29 29 31 39 40 39 36 37 39 41 42 41 42 41 41 44 48
52 53 55 51 52 51 51 46 50 51 43 36 36 44 41 41 38 39 40 42 42 42 41 34 34 33 37 34 37 35 34 39 37 37 39 42 43 43 41 41 41 40 44 47
53 54 52 51 51 52 49 47 49 51 48 34 36 43 42 37 42 40 39 40 40 37 35 33 32 37 37 38 37 34 37 35 36 34 36 39 36 41 44 42 41 41 42 45
53 54 50 50 51 50 49 42 48 51 52 43 32 43 41 41 42 41 42 41 42 39 35 36 38 43 39 35 39 40 38 39 41 38 41 40 43 43 44 42 43 43 43 46
54 51 50 50 50 46 44 44 50 50 54 44 36 39 41 42 43 41 41 44 43 41 40 38 40 41 40 37 43 36 38 41 44 43 44 43 43 42 44 44 44 44 43 43
52 50 50 50 50 49 41 48 49 51 47 45 42 42 39 41 38 39 44 41 41 43 42 43 41 43 41 44 43 43 43 43 43 44 44 43 45 45 46 45 43 41 41 42
52 50 50 49 47 43 46 52 52 52 49 40 42 41 38 42 41 43 42 43 39 45 40 43 44 44 48 44 45 44 45 44 43 44 43 42 44 44 44 42 41 39 40 42
50 48 44 41 48 55 54 52 48 48 46 45 41 46 42 40 40 39 41 43 41 42 43 46 45 47 48 48 48 49 46 45 44 44 44 43 43 42 42 40 42 42 43 44
46 44 50 53 52 50 48 43 41 40 39 43 40 43 43 44 40 39 45 43 43 42 44 44 47 45 46 47 48 50 49 47 46 44 43 45 45 42 42 42 43 43 44 45
48 50 52 53 52 46 43 39 40 39 35 41 40 41 45 46 50 47 48 44 45 37 44 43 44 44 48 47 46 47 49 48 46 44 44 44 43 42 43 43 43 45 46 48
53 53 49 48 44 40 35 35 36 36 40 44 44 43 47 49 48 46 47 41 40 44 43 44 43 48 48 49 48 48 49 47 46 45 45 46 47 47 46 48 49 48 48 49
49 45 39 43 39 38 37 34 34 41 44 45 42 45 43 47 49 47 38 42 43 40 40 40 40 49 49 50 48 48 47 47 47 47 48 49 50 48 48 46 44 44 45 44
46 47 39 40 38 40 41 40 44 48 49 51 46 45 44 43 44 46 44 42 39 38 38 39 44 51 50 49 48 48 48 48 48 48 47 46 45 45 44 43 42 42 43 43
40 43 41 41 38 36 39 41 43 50 51 53 49 47 43 41 45 43 40 38 37 37 39 43 49 52 51 50 48 47 47 46 45 44 43 42 40 41 42 42 41 41 43 44
36 34 35 39 41 39 36 39 40 48 50 49 46 41 40 44 43 40 41 39 39 41 42 45 50 53 52 50 48 47 46 44 43 42 42 42 42 41 41 41 42 41 43 44

GFSNW_sfc_dewp_102.txt.gz
Dewpoint
57 57 57 55 52 52 50 42 32 36 31 29 30 28 26 25 8 13 13 17 18 20 29 30 33 32 31 29 29 29 29 25 25 23 21 21 18 19 20 23 30 29 30 40
57 57 56 55 52 52 48 41 36 37 31 26 30 30 17 11 13 11 13 13 21 21 32 31 36 33 34 32 27 34 32 28 25 25 23 20 19 18 18 16 21 31 25 45
57 56 56 55 53 53 50 43 36 31 29 29 30 28 20 16 20 16 16 16 22 23 26 35 39 44 34 30 27 53 40 28 28 21 30 30 20 17 17 16 16 18 19 42
57 56 56 55 54 53 50 41 34 32 23 22 23 21 22 16 14 17 17 21 22 23 33 39 34 37 34 29 38 33 29 30 30 25 26 28 27 18 16 20 18 20 26 40
57 56 56 55 54 52 49 41 38 38 26 26 21 25 19 17 14 17 19 20 20 23 25 42 39 36 43 35 35 32 30 32 36 34 29 30 26 26 17 16 17 19 33 46
56 56 56 55 54 52 48 45 44 41 34 24 19 21 23 19 18 19 17 23 25 25 30 30 35 35 29 38 35 34 35 38 40 36 39 32 26 31 30 19 21 22 43 49
55 56 56 56 55 53 47 50 48 45 32 24 21 19 19 16 21 24 15 22 27 30 30 27 25 23 26 28 31 31 36 42 41 42 39 31 39 36 34 37 25 43 44 50
56 55 55 56 56 54 48 46 48 46 43 34 21 22 19 21 28 22 18 16 28 31 25 25 29 26 31 30 28 32 35 42 43 42 39 40 36 40 36 39 41 40 41 44
56 55 54 55 57 54 50 46 51 47 45 33 24 22 23 23 29 28 21 25 27 26 24 26 32 36 41 34 30 28 36 45 44 40 38 34 43 43 42 39 45 49 43 44
55 55 54 55 56 54 50 47 53 47 45 40 29 25 26 25 30 30 30 26 26 27 29 29 36 40 45 38 38 30 37 40 37 40 41 40 44 45 40 32 41 42 43 46
55 55 53 54 56 54 51 46 53 49 48 43 35 28 31 30 30 31 34 29 30 26 30 29 34 33 41 39 37 36 36 34 34 37 39 37 42 40 33 49 43 44 46 48
55 55 53 54 56 53 52 44 51 52 48 46 45 35 32 32 35 34 36 36 40 33 30 32 32 32 31 34 30 34 34 37 39 38 46 49 46 48 47 44 45 44 45 45
55 55 53 54 56 52 51 47 49 48 42 36 36 36 36 35 29 29 29 33 33 38 37 37 31 35 31 30 30 33 35 38 37 38 45 41 39 39 40 41 41 40 42 43
55 54 53 54 55 52 51 46 46 46 45 38 30 28 34 33 30 31 29 35 39 37 37 29 30 29 35 29 36 32 34 39 33 35 40 39 38 38 40 40 38 36 40 43
54 53 53 55 53 53 50 47 46 46 46 43 40 34 35 33 33 32 32 34 37 32 31 30 31 32 36 34 31 31 30 33 32 32 42 48 41 42 40 40 38 38 39 41
53 53 53 54 51 52 46 42 44 44 46 46 39 38 37 35 33 36 35 36 37 35 31 32 34 40 38 30 35 39 35 36 37 37 39 41 39 42 42 40 39 41 40 44
53 53 54 52 51 46 44 44 49 48 52 44 39 38 39 37 35 36 36 37 36 35 34 34 35 39 36 31 38 39 39 38 40 39 42 41 40 42 41 40 41 45 40 43
53 54 52 51 50 48 40 43 49 49 47 39 30 37 44 39 34 35 37 37 37 39 38 38 38 44 41 40 41 41 41 40 40 42 42 42 43 43 44 43 43 43 41 41
54 52 51 48 45 40 39 55 53 52 49 40 32 30 37 39 36 35 37 38 37 38 37 37 38 38 48 44 46 44 46 44 44 43 43 41 42 43 45 43 42 40 40 41
52 48 42 40 39 55 54 50 49 44 41 45 42 34 48 45 35 34 39 38 37 40 42 40 42 44 51 49 49 50 47 46 44 44 44 43 43 45 47 47 47 42 40 43
46 43 44 55 55 46 43 38 42 40 32 32 36 39 44 52 37 39 41 40 38 38 43 41 43 44 48 50 49 53 50 48 45 45 45 48 50 48 48 46 43 41 41 43
49 49 57 51 42 44 39 38 35 37 33 34 31 31 46 51 48 41 44 44 40 37 39 40 46 43 51 51 48 49 50 47 45 45 48 47 49 46 45 47 46 44 44 45
52 52 50 48 43 41 39 36 36 33 33 33 34 31 44 47 43 46 44 44 37 37 40 42 44 52 52 51 49 48 49 48 46 46 46 48 48 49 47 47 48 46 45 49
50 47 39 43 40 40 37 36 37 36 35 38 35 34 44 43 40 39 35 35 35 38 37 37 39 55 53 52 50 48 47 47 46 46 48 48 48 49 49 48 47 46 45 46
48 47 40 41 42 43 42 40 39 42 38 39 37 34 35 48 40 39 38 34 35 34 34 38 53 57 56 52 49 48 46 46 47 49 49 50 50 50 48 46 45 44 43 41
46 46 44 44 43 42 42 41 39 43 45 44 43 44 42 45 47 35 33 32 33 34 42 50 55 58 55 55 51 48 50 48 48 49 51 50 50 50 49 44 42 42 41 43
44 41 43 42 44 42 41 42 43 50 51 47 50 43 42 47 41 34 34 32 35 40 48 52 57 59 58 55 51 50 49 49 49 49 52 51 48 45 44 42 42 41 43 44

GFSNW_sfc_dewp_105.txt.gz
Dewpoint
57 57 56 55 53 51 50 47 39 38 33 35 35 30 31 34 16 16 16 15 16 20 31 30 37 36 37 34 29 31 33 28 27 27 24 24 22 20 22 24 27 35 33 48
57 57 56 55 53 52 49 46 41 41 37 30 26 35 31 19 13 18 14 14 15 24 34 35 38 35 35 36 31 33 32 32 28 25 26 26 20 20 20 19 18 22 29 45
57 57 56 54 54 53 50 47 41 42 41 36 27 32 31 26 20 19 20 25 21 22 33 37 41 40 38 35 31 53 41 28 29 26 27 28 30 22 19 25 16 19 21 47
56 56 56 54 54 54 51 48 40 40 37 30 26 29 27 21 20 21 21 30 23 28 34 41 41 40 39 40 44 36 31 28 29 30 33 28 28 28 22 17 22 23 43 47
56 56 56 55 54 53 49 45 44 46 43 39 30 29 29 20 20 24 20 24 22 28 34 38 40 41 45 42 41 36 33 32 40 36 41 39 36 30 31 26 17 42 52 52
56 56 55 56 55 52 50 52 52 50 45 40 30 26 32 23 25 23 25 24 28 30 35 38 39 41 41 40 40 36 37 40 39 36 40 39 35 38 36 42 43 36 43 51
56 56 56 56 55 53 49 49 49 49 44 43 41 28 23 23 28 32 21 23 30 36 31 26 26 25 31 33 34 31 37 42 40 39 40 33 42 42 41 44 46 47 48 49
55 56 56 55 56 55 50 48 49 50 46 46 42 37 24 29 31 30 22 27 33 29 26 28 33 36 38 40 39 30 37 41 39 39 37 40 42 45 41 40 44 49 52 55
55 55 56 55 55 55 50 47 49 51 48 44 45 42 29 28 33 33 27 31 30 31 31 31 36 36 40 39 38 40 44 46 42 40 37 36 44 43 46 42 43 48 53 56
55 55 55 55 55 55 51 48 52 53 48 46 46 43 33 32 37 37 34 31 32 31 34 33 40 41 43 39 38 40 39 39 38 40 41 42 46 45 46 40 43 50 53 53
55 55 55 55 54 56 51 47 49 53 51 48 48 44 40 36 37 39 38 36 35 35 35 39 43 42 42 40 43 43 40 41 40 39 37 37 44 42 36 45 46 49 58 58
55 55 55 54 54 56 53 47 52 54 54 48 44 41 40 39 38 40 42 43 44 42 39 41 41 38 41 40 37 41 37 40 43 43 42 45 46 47 49 48 44 45 46 55
55 55 55 54 54 56 51 48 49 51 51 43 37 34 41 35 35 30 37 42 44 45 43 44 42 37 38 37 37 40 40 42 44 44 44 46 46 44 45 45 41 42 44 46
55 55 54 53 54 56 51 48 50 49 50 46 37 31 35 39 34 34 34 37 44 43 45 41 38 38 38 36 39 38 41 39 35 44 46 42 42 44 43 41 41 40 43 48
55 55 54 53 55 54 51 49 48 48 49 46 46 47 46 33 35 35 38 37 42 45 40 39 38 44 42 40 36 36 38 39 36 41 47 46 44 46 46 42 42 42 44 47
54 53 53 54 54 52 47 47 50 48 52 50 45 47 44 38 38 38 43 42 44 45 42 40 44 44 42 35 40 40 39 41 42 46 46 44 46 47 44 43 44 43 46 45
53 53 54 54 52 48 45 46 50 48 48 50 45 44 45 41 40 41 41 41 46 45 43 42 42 44 42 37 37 43 43 45 45 47 46 43 45 45 45 46 46 46 46 44
53 54 54 52 51 49 44 42 48 49 53 50 44 42 46 47 41 41 44 43 44 47 44 46 45 47 46 41 43 45 47 46 45 44 44 45 44 47 45 46 47 44 42 44
54 54 52 49 46 44 46 56 53 56 54 47 42 39 43 44 43 43 44 46 43 46 42 42 46 44 46 47 46 49 48 46 45 46 46 46 46 48 47 46 45 44 44 45
52 51 44 43 44 55 55 53 53 51 48 51 47 44 47 50 47 42 44 44 43 42 44 48 46 47 50 51 49 51 52 48 48 46 45 45 46 47 47 47 46 46 46 45
48 44 49 56 55 51 48 44 46 45 40 41 43 45 47 53 47 44 49 45 44 42 45 44 46 45 48 51 53 53 52 51 48 49 49 51 50 48 46 45 44 45 47 49
50 50 54 57 49 46 41 43 41 42 36 40 33 40 49 52 52 48 51 47 46 41 45 44 44 48 54 53 52 53 54 50 50 49 49 51 50 49 46 46 45 47 49 48
54 52 50 49 47 40 39 36 39 39 42 41 37 37 49 54 54 50 48 45 44 46 43 43 45 54 55 54 53 52 52 51 50 51 51 50 50 50 49 49 49 49 49 49
49 46 39 43 40 39 41 40 40 41 45 42 43 42 49 51 49 48 44 44 45 40 40 40 46 54 54 54 53 52 51 51 51 51 50 51 51 51 51 51 50 50 49 48
47 47 39 40 42 42 44 48 46 45 45 45 43 43 48 49 46 44 41 38 36 38 39 42 52 55 55 54 53 52 51 51 50 49 50 51 50 49 49 49 47 47 46 46
47 46 44 43 43 44 43 45 45 47 48 46 47 46 44 44 47 41 38 34 35 38 51 54 55 55 55 55 54 52 52 50 49 50 51 51 50 48 47 47 46 44 46 47
44 41 43 43 46 44 44 46 48 53 51 48 49 44 42 47 43 41 41 37 39 51 54 57 57 57 57 56 55 52 51 51 51 52 51 51 48 47 46 45 45 45 46 46